SCP
0 0 0 0 0 0 0 0 0 0 0 0 0 0 0 0 0 0 0 0 0 0 0 -0 -0 0 0 0 0 0 0 0 0 0 0 0 0 0 0 0 0 0 0 0
0 0 0 0 0 0 0 0 0 0 0 0 0 0 0 0 0 0 0 0 0 0 0 -0 0 0 0 0 0 0 0 0 0 0 0 0 0 0 0 0 0 0 0 0
0 0 0 0 0 0 0 0 0 0 0 0 0 0 0 0 0 0 0 0 0 0 0 0 0 0 0 0 0 0 0 0 0 0 0 0 0 0 0 0 0 0 0 0
0 0 0 0 0 0 0 0 0 0 0 0 0 0 0 0 0 0 0 0 0 0 0 0 0 0 0 0 0 0 0 0 0 0 0 0 0 0 0 0 0 0 0 0
0 0 0 0 0 0 0 0 0 0 0 0 0 0 0 0 0 0 0 0 0 0 0 0 0 0 0 0 0 0 0 0 0 0 0 0 0 0 0 0 0 0 0 0
0 0 0 0 0 0 0 0 0 0 0 0 0 0 0 0 0 0 0 0 0 0 0 0 0 0 0 0 0 0 0 0 0 0 0 0 0 0 0 0 0 0 0 0
0 0 0 0 0 0 0 0 0 0 0 0 0 0 0 0 0 0 0 0 0 0 0 0 0 0 0 0 0 0 0 0 0 0 0 0 0 0 0 0 0 0 0 0
0 0 0 0 0 0 0 0 0 0 0 -0 -0 -0 0 0 0 0 0 0 0 0 0 0 0 0 0 0 0 0 0 0 0 0 0 0 0 0 0 0 0 0 0 0
0 0 0 0 0 0 0 0 0 0 0 0 0 -0 -0 0 0 0 0 0 0 0 0 0 0 0 0 0 0 0 0 0 0 0 0 0 0 0 0 0 0 0 0 0
0 0 0 -0 0 0 0 0 0 0 0 0 0 -0 -0 -0 0 0 0 0 0 0 0 0 0 0 0 0 0 0 0 0 0 0 0 0 0 0 0 0 0 0 0 0
0 0 0 -0 0 0 0 0 0 0 0 0 0 0 -0 -0 0 0 0 0 0 0 0 0 0 0 0 0 0 0 0 0 -0 0 0 0 0 0 0 0 0 0 0 0
0 0 0 0 0 0 0 0 0 0 0 0 0 0 0 0 0 0 0 0 0 0 0 0 0 0 0 0 0 0 0 0 0 0 0 0 0 0 0 0 0 0 0 0
0 0 0 0 0 0 0 0 0 0 0 0 0 0 0 0 0 0 0 0 0 0 0 0 0 0 0 0 0 0 0 0 0 0 0 0 0 0 0 0 0 0 0 0
0 0 0 0 0 0 0 0 0 0 0 0 0 0 0 0 0 0 0 0 0 0 0 0 0 0 0 0 0 0 0 0 0 0 0 0 0 0 0 0 0 0 0 0
0 0 0 0 0 0 0 0 0 0 0 0 0 0 0 0 0 0 0 0 0 0 0 0 0 0 0 0 0 0 0 0 0 0 0 0 0 0 0 0 0 0 0 0
0 0 0 0 0 0 0 0 0 0 0 0 0 0 0 0 0 0 0 0 0 0 0 0 0 0 0 0 0 0 0 0 0 0 0 0 0 0 0 0 0 0 0 0
0 0 0 0 0 0 0 0 0 0 0 0 0 0 0 0 0 0 0 0 0 0 0 0 0 0 0 0 0 0 0 0 0 0 0 0 0 0 0 0 0 0 0 0
0 0 0 0 0 0 0 0 0 0 0 0 0 0 0 0 0 0 0 0 0 0 0 0 0 0 0 0 0 0 0 0 0 0 0 0 0 0 0 0 0 0 0 0
0 0 0 0 0 0 0 0 0 0 0 0 0 0 0 0 0 0 0 0 0 0 0 0 0 0 0 0 0 0 0 0 0 0 0 0 0 0 0 0 0 0 0 0
0 0 0 0 0 0 0 0 0 0 0 0 0 0 0 0 0 0 0 0 0 0 0 0 0 0 0 0 0 0 0 0 0 0 0 0 0 0 0 0 0 0 0 0
0 0 0 0 0 0 0 0 0 0 0 0 0 0 0 0 0 0 0 0 0 0 0 0 0 0 0 0 0 0 0 0 0 0 0 0 0 0 0 0 0 0 0 0
0 0 0 0 0 0 0 0 0 0 0 0 0 0 0 0 0 0 0 0 0 0 0 0 0 0 0 0 0 0 0 0 0 0 0 0 0 0 0 0 0 0 0 0
0 0 0 0 0 0 0 0 0 0 0 0 0 0 0 0 0 0 0 0 0 0 0 0 0 0 0 0 0 0 0 0 0 0 0 0 0 0 0 0 0 0 0 0
0 0 0 0 0 0 0 0 0 0 0 0 0 0 0 0 0 0 0 0 0 0 0 0 0 0 0 0 0 0 0 0 0 0 0 0 0 0 0 0 0 0 0 0
0 0 0 0 0 0 0 0 0 0 0 0 0 -0 -0 0 0 0 0 0 0 0 0 0 0 0 0 0 0 0 0 0 -0 -0 -0 0 0 0 0 0 0 0 0 0
0 0 0 0 0 0 0 0 0 0 0 0 0 -0 -0 0 0 0 0 0 0 0 0 0 0 0 0 0 0 0 0 0 0 -0 -0 0 0 0 0 0 0 0 0 0
0 0 0 0 0 0 0 0 0 0 0 0 0 0 0 0 0 0 0 0 0 0 0 0 0 0 0 0 0 0 0 0 0 0 -0 0 0 0 0 0 0 0 0 0
Wind_Speed
5 4 4 3 5 6 6 8 8 7 8 9 10 11 10 9 9 9 8 7 7 6 4 4 4 3 3 3 2 3 4 3 1 0 1 1 1 1 2 2 2 1 1 1
1 1 2 2 4 5 5 5 6 6 4 4 6 7 8 9 11 10 8 8 7 6 5 4 4 4 3 3 2 3 4 2 1 2 2 1 1 1 2 2 2 2 2 1
2 2 2 2 6 6 5 5 9 8 7 8 8 11 12 11 11 10 9 8 7 6 6 5 4 4 4 3 3 4 3 2 2 2 2 2 2 2 2 2 2 2 2 2
2 1 3 8 4 6 7 4 5 6 7 11 11 10 8 8 10 10 9 8 7 6 5 4 4 4 4 4 4 3 2 2 1 1 1 2 2 2 2 2 2 2 2 2
3 2 3 4 1 5 7 2 4 9 9 9 10 8 2 3 8 9 9 7 6 6 5 4 4 4 5 4 3 3 2 1 0 1 1 1 2 2 1 1 2 2 2 2
4 3 5 7 4 2 8 2 4 9 12 11 10 6 5 6 7 7 7 6 6 6 5 5 4 5 6 4 3 2 2 1 1 1 1 0 1 1 1 1 2 2 3 2
4 3 7 6 3 4 5 8 5 9 12 11 8 8 7 8 8 7 7 7 7 7 5 4 4 5 5 3 2 2 2 1 0 0 1 1 1 1 1 1 2 3 3 3
5 4 8 4 3 6 7 4 7 8 9 9 7 8 9 9 9 9 8 7 7 7 5 3 4 5 4 3 2 1 1 1 0 1 1 1 0 1 1 1 2 3 3 4
7 7 5 2 4 3 5 7 6 7 8 11 10 9 9 8 8 8 7 7 5 6 5 3 3 5 4 3 2 2 2 1 0 1 1 0 0 1 1 1 1 2 3 3
1 2 1 1 3 3 5 6 6 8 9 10 9 9 9 8 7 7 6 6 5 6 5 3 2 3 3 2 2 3 2 0 0 1 1 1 1 1 1 1 2 3 3 4
1 1 3 3 2 4 6 8 8 7 7 8 10 9 8 8 7 6 5 5 5 6 5 4 3 2 2 2 3 3 2 0 0 1 1 1 2 2 2 3 4 4 4 4
6 7 5 4 3 5 8 7 8 8 7 6 8 9 8 7 6 5 5 4 4 4 4 4 3 2 2 2 3 3 2 1 1 1 1 1 2 3 5 5 8 8 7 6
5 4 4 4 3 5 7 7 7 8 9 8 6 8 8 6 5 5 5 4 4 4 4 3 3 2 2 2 3 3 3 2 1 1 1 1 2 2 4 6 7 7 9 10
4 6 5 3 4 5 7 7 7 7 6 7 7 7 7 6 5 5 4 4 4 3 3 3 3 2 2 2 3 3 2 2 1 2 2 2 2 2 3 4 5 5 7 9
2 4 6 5 5 5 6 8 8 6 6 6 6 7 7 7 6 4 3 3 4 3 2 2 2 2 2 2 2 2 2 2 2 2 2 2 2 3 3 4 4 5 5 7
3 5 6 7 6 6 7 7 7 6 5 6 6 6 6 6 5 4 3 4 4 3 2 2 2 3 2 2 2 2 2 3 2 1 2 2 3 3 4 4 5 5 5 6
6 5 5 5 5 5 5 5 6 6 5 6 6 6 6 5 4 3 2 2 3 3 3 3 3 3 2 3 3 2 2 2 4 2 2 3 3 4 4 4 5 5 6 7
6 7 7 8 7 6 4 4 5 5 5 5 6 6 5 5 5 4 3 2 1 1 2 3 3 2 2 2 3 2 2 2 2 3 3 4 4 4 4 5 6 7 6 7
4 5 5 5 6 6 5 4 4 4 4 5 6 5 5 5 4 3 3 3 2 2 4 3 3 2 3 4 3 2 2 3 3 4 4 6 5 5 5 5 6 6 6 6
5 5 5 5 5 5 5 4 4 4 4 5 5 4 4 3 3 3 3 3 4 5 4 3 3 3 4 4 4 3 3 4 4 4 4 5 5 6 6 6 6 6 6 6
5 5 5 5 5 4 4 4 4 4 3 4 5 5 4 3 3 3 2 2 4 4 3 3 2 3 3 4 5 3 4 4 5 5 5 5 6 6 6 6 6 6 6 6
4 4 4 4 4 3 2 3 4 4 3 3 3 3 3 2 2 2 3 4 4 4 2 2 3 4 5 5 3 3 4 5 5 5 5 5 6 6 6 6 6 6 6 6
3 3 4 3 3 3 2 2 3 3 3 3 3 3 3 3 3 3 3 3 3 4 2 3 5 7 7 3 3 4 5 5 5 5 6 6 6 6 6 7 7 6 6 7
2 2 2 2 3 3 2 0 1 1 2 2 2 2 3 2 2 2 3 4 4 4 3 5 7 9 7 3 3 4 4 5 5 5 5 5 5 5 6 6 6 6 6 7
2 2 2 2 2 1 1 1 1 1 1 0 1 1 1 2 3 3 3 3 5 5 3 5 9 9 5 3 4 4 5 5 5 5 5 5 5 6 6 6 6 6 6 6
2 2 1 2 2 2 1 1 1 1 1 1 1 1 1 1 2 2 2 3 4 5 4 3 4 5 4 4 5 5 5 6 6 6 6 6 6 6 6 6 8 7 6 6
1 1 0 0 1 1 1 2 2 2 2 2 2 2 2 2 2 2 3 3 3 3 3 3 3 3 4 4 5 5 5 5 5 5 5 5 5 6 6 7 6 6 6 6
Wind_Direction
226 215 177 185 188 175 169 174 171 191 185 195 183 170 163 154 146 141 142 146 148 148 147 139 132 129 124 120 113 107 98 87 76 33 36 40 24 10 7 15 13 9 19 2
294 245 152 189 208 182 179 168 157 145 200 202 156 135 140 150 151 150 152 152 151 148 145 145 145 141 133 127 124 111 105 100 74 53 42 32 18 18 16 4 356 6 359 341
258 286 50 267 225 187 176 177 159 175 199 151 142 158 167 167 161 161 160 157 157 157 157 162 166 157 150 147 121 107 104 89 69 58 41 19 22 33 11 354 359 351 337 334
163 94 210 244 244 170 155 181 174 158 158 160 161 163 165 165 162 162 161 160 160 157 156 158 147 138 134 118 114 112 103 88 69 62 40 22 29 17 347 346 348 327 321 320
130 170 264 285 249 164 149 200 186 151 148 142 123 93 79 174 161 161 160 156 154 152 145 136 134 134 121 111 109 106 109 116 111 93 64 33 8 328 317 336 330 313 308 313
129 157 224 244 261 179 109 174 226 158 151 145 128 136 210 187 154 144 141 139 138 134 122 125 135 128 116 118 119 148 195 207 201 157 145 194 283 296 310 313 301 312 316 309
157 198 254 255 263 104 136 214 198 165 157 153 160 174 169 149 141 140 136 136 134 130 129 142 142 125 122 130 167 208 208 194 219 254 228 226 275 312 323 321 331 329 318 309
153 183 246 251 142 168 198 173 150 151 155 149 136 122 129 138 140 139 134 132 134 131 133 138 136 130 132 167 206 185 143 119 346 309 306 13 360 323 331 337 332 323 317 313
179 206 243 235 179 174 142 134 142 146 146 139 129 133 136 141 143 143 141 140 135 136 136 140 145 140 148 194 180 145 120 108 342 344 333 338 230 299 321 328 315 305 307 300
111 286 316 71 98 101 119 126 131 136 136 133 134 139 139 141 142 142 141 144 139 137 140 152 164 157 169 174 149 131 130 174 300 342 330 326 297 261 272 286 294 296 293 288
104 228 62 27 82 113 102 103 108 113 124 135 132 135 142 145 148 150 147 147 146 151 158 172 173 169 174 158 132 126 135 177 295 297 274 288 289 270 259 250 247 263 265 266
206 213 170 191 182 127 117 120 127 123 114 121 133 138 136 140 144 142 141 138 142 151 159 171 169 175 186 170 151 147 155 203 239 269 282 288 299 312 296 282 290 286 283 285
193 181 159 155 137 127 125 127 125 128 134 132 130 134 136 133 135 131 129 133 150 161 166 167 165 183 205 188 163 159 174 195 212 234 263 284 295 300 309 315 310 300 295 297
134 115 108 127 137 126 121 120 112 109 118 127 128 125 125 118 120 129 147 162 154 144 149 159 163 208 224 188 168 176 186 205 210 224 241 255 266 275 277 290 306 308 304 300
124 126 145 138 117 111 114 112 109 110 112 114 121 126 130 131 140 153 157 143 127 127 146 156 170 235 237 172 164 180 194 219 225 234 247 255 265 276 279 281 281 288 299 304
117 105 117 122 126 125 120 123 127 135 134 130 131 140 145 145 145 142 138 136 136 161 189 185 208 232 212 168 163 184 222 262 267 251 259 271 275 277 280 279 280 282 285 287
131 139 142 139 140 139 139 143 146 147 141 140 147 143 132 125 122 127 147 164 169 187 197 199 223 234 204 181 181 202 222 265 288 284 259 259 265 267 270 271 273 275 275 277
162 166 163 156 151 146 142 138 139 141 147 150 139 130 133 143 158 174 185 172 151 203 238 230 227 218 208 202 195 203 216 236 249 256 262 265 267 264 266 268 272 276 281 286
117 130 135 139 141 138 138 138 142 144 142 138 138 147 157 165 172 177 168 154 169 226 254 248 233 208 223 230 213 207 222 242 255 261 263 273 278 274 270 269 272 276 278 282
91 102 110 112 113 120 127 129 130 132 140 142 141 143 152 170 172 168 166 188 213 222 231 235 226 226 234 241 242 222 231 242 252 262 267 267 269 272 271 270 273 276 278 277
95 97 101 106 107 110 124 132 132 139 146 147 152 165 178 189 183 171 168 228 255 243 229 234 223 233 241 254 258 239 241 249 256 259 263 266 268 271 271 271 273 276 278 278
99 102 103 107 107 102 107 121 128 133 134 140 155 163 166 184 197 204 216 224 243 247 231 224 232 249 264 271 250 248 252 256 258 259 261 263 265 269 270 270 271 274 275 275
110 111 110 116 126 129 103 105 127 140 150 161 170 178 188 202 197 192 243 254 245 249 233 230 253 268 277 269 253 255 259 261 261 260 261 263 263 263 267 270 270 271 274 276
106 106 110 107 102 99 95 149 148 147 157 173 189 190 184 196 252 244 232 257 261 263 244 251 266 277 283 263 258 259 261 262 264 265 266 267 266 266 269 270 270 271 272 274
135 113 97 99 105 153 194 183 115 113 123 142 243 237 215 197 211 240 245 253 267 272 260 271 282 286 279 260 259 260 260 260 266 271 265 268 268 270 272 272 271 272 272 271
162 167 179 190 198 206 200 174 168 186 175 197 252 255 254 254 246 245 249 261 270 274 266 265 274 280 268 263 263 264 263 271 279 277 270 270 271 272 273 274 276 274 272 270
159 162 168 286 278 230 199 181 184 210 210 203 227 245 247 250 253 254 257 261 268 269 267 265 266 266 266 266 270 271 270 268 267 268 269 268 269 270 272 274 276 277 275 272